This is the latest recevied weather packets stored in our database for station/object WX5HOT. If no packets are shown the sender has not sent any weather packets the latest 10 day(s).
| Time | Temp. | Humidity | Pressure | Rain* | Wind** | Luminosity | Snow |
|---|---|---|---|---|---|---|---|
| 1777690166 | 13.89° C | 63% | 1067.9 hPa | 0 mm | - | 0 W/m² | - |
| 1777689864 | 13.89° C | 63% | 1068 hPa | 0 mm | - | 0 W/m² | - |
| 1777689561 | 13.89° C | 68% | 1067.9 hPa | 0 mm | - | 0 W/m² | - |
| 1777689258 | 13.89° C | 68% | 1068.1 hPa | 0 mm | - | 0 W/m² | - |
| 1777688956 | 13.89° C | 66% | 1067.9 hPa | 0 mm | - | 0 W/m² | - |
| 1777688652 | 14.44° C | 62% | 1067.8 hPa | 0 mm | - | 0 W/m² | - |
| 1777688349 | 13.89° C | 64% | 1067.8 hPa | 0 mm | - | 0 W/m² | - |
| 1777688046 | 14.44° C | 65% | 1067.8 hPa | 0 mm | - | 0 W/m² | - |
| 1777687744 | 14.44° C | 65% | 1067.6 hPa | 0 mm | - | 0 W/m² | - |
| 1777687441 | 14.44° C | 65% | 1067.2 hPa | 0 mm | - | 0 W/m² | - |
| 1777687138 | 14.44° C | 64% | 1067.4 hPa | 0 mm | - | 0 W/m² | - |
| 1777686835 | 14.44° C | 63% | 1067.1 hPa | 0 mm | - | 0 W/m² | - |
| 1777686532 | 14.44° C | 63% | 1067.2 hPa | 0 mm | - | 0 W/m² | - |
| 1777686229 | 14.44° C | 63% | 1067 hPa | 0 mm | - | 0 W/m² | - |
| 1777685925 | 14.44° C | 63% | 1066.9 hPa | 0 mm | - | 0 W/m² | - |
| 1777685621 | 14.44° C | 64% | 1067.2 hPa | 0 mm | - | 0 W/m² | - |
| 1777685318 | 14.44° C | 62% | 1066.9 hPa | 0 mm | - | 0 W/m² | - |
| 1777685016 | 14.44° C | 63% | 1066.9 hPa | 0 mm | - | 0 W/m² | - |
| 1777684713 | 14.44° C | 64% | 1066.7 hPa | 0 mm | - | 0 W/m² | - |
| 1777684409 | 14.44° C | 65% | 1066.7 hPa | 0 mm | - | 0 W/m² | - |
| 1777684106 | 15° C | 65% | 1066.7 hPa | 0 mm | - | 0 W/m² | - |
| 1777683803 | 15° C | 62% | 1066.7 hPa | 0 mm | - | 1 W/m² | - |
| 1777683500 | 15.56° C | 57% | 1066.7 hPa | 0 mm | - | 1 W/m² | - |
| 1777683198 | 15.56° C | 56% | 1066.6 hPa | 0 mm | - | 1 W/m² | - |
| 1777682895 | 15.56° C | 55% | 1066.7 hPa | 0 mm | - | 2 W/m² | - |
* Rain latest hour (hover to see other rain measurements)
** Current wind speed in m/s (hover to see current wind gust speed)